ACA108 CYVR-CYYZ

Flight info

Callsign ACA108
Flight time 3h 59m
Altitude 35000
Route ALNOD DCT IKNIX DCT BEVEL DCT 4930N10000W DCT AGLIN DCT OTNIK BOXUM7
Aircraft A321/M-SDE3FGHIRWY/LB1

Departure

Time 2026-05-07 18:57
Airport Vancouver International Airport (CYVR)

Arrival

Time 2026-05-07 22:56
Airport Toronto Pearson International Airport (CYYZ)
Time Latitude Longitude Altitude Speed Heading
2026-05-07 18:14 49.19637 -123.18489 31 ft 0 kts 179°
2026-05-07 18:43 49.19645 -123.18489 26 ft 3 kts 179°
2026-05-07 18:43 49.19666 -123.18489 26 ft 3 kts 179°
2026-05-07 18:44 49.19683 -123.18490 27 ft 3 kts 185°
2026-05-07 18:44 49.19699 -123.18484 26 ft 3 kts 238°
2026-05-07 18:44 49.19701 -123.18463 29 ft 3 kts 279°
2026-05-07 18:44 49.19698 -123.18438 29 ft 0 kts 279°
2026-05-07 18:47 49.19699 -123.18444 27 ft 3 kts 279°
2026-05-07 18:48 49.19703 -123.18484 28 ft 4 kts 280°
2026-05-07 18:48 49.19708 -123.18521 28 ft 4 kts 280°
2026-05-07 18:48 49.19714 -123.18584 27 ft 8 kts 273°
2026-05-07 18:48 49.19691 -123.18673 25 ft 10 kts 214°
2026-05-07 18:49 49.19620 -123.18698 27 ft 10 kts 190°
2026-05-07 18:49 49.19554 -123.18715 25 ft 10 kts 190°
2026-05-07 18:49 49.19482 -123.18734 25 ft 12 kts 190°
2026-05-07 18:49 49.19405 -123.18710 25 ft 11 kts 155°
2026-05-07 18:50 49.19332 -123.18701 25 ft 12 kts 189°
2026-05-07 18:50 49.19258 -123.18719 26 ft 10 kts 189°
2026-05-07 18:50 49.19187 -123.18717 25 ft 12 kts 157°
2026-05-07 18:50 49.19109 -123.18631 25 ft 14 kts 142°
2026-05-07 18:51 49.19035 -123.18543 26 ft 13 kts 141°
2026-05-07 18:51 49.18970 -123.18463 25 ft 11 kts 137°
2026-05-07 18:51 49.18942 -123.18339 25 ft 15 kts 99°
2026-05-07 18:51 49.18925 -123.18188 25 ft 14 kts 99°
2026-05-07 18:52 49.18910 -123.18049 25 ft 13 kts 99°
2026-05-07 18:52 49.18896 -123.17924 25 ft 12 kts 100°
2026-05-07 18:52 49.18881 -123.17798 25 ft 12 kts 100°
2026-05-07 18:52 49.18867 -123.17672 25 ft 12 kts 100°
2026-05-07 18:53 49.18850 -123.17523 25 ft 15 kts 100°
2026-05-07 18:53 49.18832 -123.17370 25 ft 14 kts 100°
2026-05-07 18:53 49.18814 -123.17216 25 ft 15 kts 100°
2026-05-07 18:53 49.18797 -123.17058 25 ft 15 kts 99°
2026-05-07 18:54 49.18779 -123.16897 25 ft 16 kts 99°
2026-05-07 18:54 49.18760 -123.16733 26 ft 16 kts 100°
2026-05-07 18:54 49.18742 -123.16578 25 ft 14 kts 100°
2026-05-07 18:54 49.18725 -123.16438 25 ft 13 kts 100°
2026-05-07 18:55 49.18703 -123.16308 25 ft 12 kts 118°
2026-05-07 18:55 49.18650 -123.16221 26 ft 11 kts 130°
2026-05-07 18:55 49.18629 -123.16124 25 ft 9 kts 103°
2026-05-07 18:55 49.18602 -123.16052 25 ft 8 kts 145°
2026-05-07 18:56 49.18547 -123.16044 25 ft 9 kts 193°
2026-05-07 18:56 49.18491 -123.16083 25 ft 9 kts 227°
2026-05-07 18:56 49.18484 -123.16176 25 ft 11 kts 279°
2026-05-07 18:56 49.18523 -123.16519 26 ft 66 kts 280°
2026-05-07 18:57 49.18639 -123.17523 27 ft 123 kts 280°
2026-05-07 18:57 49.18811 -123.19023 31 ft 165 kts 280°
2026-05-07 18:57 49.18997 -123.20823 428 ft 173 kts 279°
2026-05-07 18:57 49.19170 -123.22658 1109 ft 175 kts 278°
2026-05-07 18:58 49.19336 -123.24506 1734 ft 176 kts 277°
2026-05-07 18:58 49.19511 -123.26414 2059 ft 188 kts 278°
2026-05-07 18:58 49.19703 -123.28497 2295 ft 207 kts 278°
2026-05-07 18:58 49.19922 -123.30803 2512 ft 233 kts 278°
2026-05-07 18:59 49.20169 -123.33384 2971 ft 254 kts 278°
2026-05-07 18:59 49.20429 -123.36089 3729 ft 260 kts 278°
2026-05-07 18:59 49.20694 -123.38861 4480 ft 264 kts 278°
2026-05-07 18:59 49.20743 -123.41627 5231 ft 268 kts 260°
2026-05-07 19:00 49.20023 -123.44257 5873 ft 272 kts 231°
2026-05-07 19:00 49.18591 -123.46113 6564 ft 272 kts 204°
2026-05-07 19:00 49.16781 -123.46935 7196 ft 273 kts 187°
2026-05-07 19:00 49.14896 -123.47364 7879 ft 276 kts 186°
2026-05-07 19:01 49.12963 -123.47718 8480 ft 281 kts 184°
2026-05-07 19:01 49.11023 -123.47564 9162 ft 281 kts 162°
2026-05-07 19:01 49.09314 -123.46139 9733 ft 283 kts 135°
2026-05-07 19:01 49.08196 -123.43666 10257 ft 287 kts 109°
2026-05-07 19:02 49.07632 -123.40675 10570 ft 302 kts 105°
2026-05-07 19:02 49.07027 -123.37512 10784 ft 320 kts 105°
2026-05-07 19:02 49.06383 -123.34199 10907 ft 340 kts 105°
2026-05-07 19:02 49.05697 -123.30631 11032 ft 360 kts 105°
2026-05-07 19:03 49.04976 -123.26891 11366 ft 371 kts 105°
2026-05-07 19:03 49.04409 -123.23028 11879 ft 375 kts 94°
2026-05-07 19:03 49.04391 -123.19029 12417 ft 379 kts 88°
2026-05-07 19:03 49.04431 -123.14992 12967 ft 383 kts 88°
2026-05-07 19:04 49.04476 -123.10912 13552 ft 384 kts 88°
2026-05-07 19:04 49.04523 -123.06932 14652 ft 371 kts 88°
2026-05-07 19:04 49.04568 -123.03003 15326 ft 372 kts 88°
2026-05-07 19:04 49.04609 -122.99029 15744 ft 381 kts 88°
2026-05-07 19:05 49.04650 -122.94953 15858 ft 397 kts 88°
2026-05-07 19:05 49.04689 -122.90681 16084 ft 407 kts 88°
2026-05-07 19:05 49.04724 -122.86330 16485 ft 412 kts 88°
2026-05-07 19:05 49.04761 -122.81952 16933 ft 415 kts 88°
2026-05-07 19:06 49.04798 -122.77520 17371 ft 419 kts 88°
2026-05-07 19:06 49.04859 -122.68555 18239 ft 426 kts 88°
2026-05-07 19:06 49.04886 -122.64019 18640 ft 430 kts 88°
2026-05-07 19:07 49.04914 -122.59497 19013 ft 433 kts 88°
2026-05-07 19:07 49.04942 -122.54836 19381 ft 436 kts 88°
2026-05-07 19:07 49.04967 -122.50246 19744 ft 439 kts 87°
2026-05-07 19:07 49.04994 -122.45570 20063 ft 444 kts 87°
2026-05-07 19:08 49.05021 -122.40846 20411 ft 447 kts 87°
2026-05-07 19:08 49.05046 -122.36088 20767 ft 450 kts 87°
2026-05-07 19:08 49.05066 -122.31293 21128 ft 453 kts 87°
2026-05-07 19:08 49.05082 -122.26470 21492 ft 456 kts 87°
2026-05-07 19:09 49.05094 -122.21625 21868 ft 458 kts 87°
2026-05-07 19:09 49.05103 -122.16810 22205 ft 461 kts 87°
2026-05-07 19:09 49.05112 -122.11892 22553 ft 464 kts 87°
2026-05-07 19:09 49.05120 -122.06946 22904 ft 467 kts 87°
2026-05-07 19:10 49.05131 -122.01974 23267 ft 471 kts 87°
2026-05-07 19:10 49.05141 -121.96964 23595 ft 474 kts 87°
2026-05-07 19:10 49.05148 -121.91925 23903 ft 476 kts 87°
2026-05-07 19:10 49.05148 -121.86861 24167 ft 479 kts 87°
2026-05-07 19:11 49.05144 -121.81774 24456 ft 481 kts 87°
2026-05-07 19:11 49.05139 -121.76654 24742 ft 484 kts 88°
2026-05-07 19:11 49.05131 -121.71572 25015 ft 487 kts 88°
2026-05-07 19:11 49.05147 -121.66405 25292 ft 487 kts 84°
2026-05-07 19:12 49.05508 -121.61265 25567 ft 487 kts 79°
2026-05-07 19:12 49.05988 -121.56132 25821 ft 490 kts 79°
2026-05-07 19:12 49.06467 -121.50977 26100 ft 492 kts 79°
2026-05-07 19:12 49.06942 -121.45782 26351 ft 495 kts 78°
2026-05-07 19:13 49.07410 -121.40626 26590 ft 497 kts 78°
2026-05-07 19:13 49.07883 -121.35386 26851 ft 500 kts 79°
2026-05-07 19:13 49.08355 -121.30124 27107 ft 502 kts 79°
2026-05-07 19:13 49.08830 -121.24815 27362 ft 505 kts 79°
2026-05-07 19:14 49.09305 -121.19487 27581 ft 507 kts 79°
2026-05-07 19:14 49.09777 -121.14153 27935 ft 506 kts 79°
2026-05-07 19:14 49.10245 -121.08812 28283 ft 505 kts 79°
2026-05-07 19:14 49.10701 -121.03576 28650 ft 504 kts 79°
2026-05-07 19:15 49.11164 -120.98247 28948 ft 505 kts 78°
2026-05-07 19:15 49.11627 -120.92922 29252 ft 506 kts 78°
2026-05-07 19:15 49.12086 -120.87601 29596 ft 505 kts 78°
2026-05-07 19:15 49.12542 -120.82275 29912 ft 505 kts 78°
2026-05-07 19:16 49.12994 -120.76947 30195 ft 505 kts 78°
2026-05-07 19:16 49.13445 -120.71631 30458 ft 505 kts 79°
2026-05-07 19:16 49.13894 -120.66308 30723 ft 505 kts 79°
2026-05-07 19:16 49.14339 -120.60990 30977 ft 504 kts 79°
2026-05-07 19:17 49.14782 -120.55668 31281 ft 505 kts 78°
2026-05-07 19:17 49.15217 -120.50414 31526 ft 506 kts 78°
2026-05-07 19:17 49.15660 -120.45062 31794 ft 506 kts 78°
2026-05-07 19:17 49.16099 -120.39735 32099 ft 506 kts 78°
2026-05-07 19:18 49.16534 -120.34408 32358 ft 505 kts 78°
2026-05-07 19:18 49.16967 -120.29076 32660 ft 505 kts 78°
2026-05-07 19:18 49.17398 -120.23743 32954 ft 504 kts 78°
2026-05-07 19:18 49.17825 -120.18419 33223 ft 504 kts 78°
2026-05-07 19:19 49.18107 -120.14889 33410 ft 504 kts 78°
2026-05-07 19:19 49.18530 -120.09563 33726 ft 503 kts 77°
2026-05-07 19:19 49.19082 -120.02517 34098 ft 503 kts 77°
2026-05-07 19:19 49.19493 -119.97211 34297 ft 502 kts 77°
2026-05-07 19:20 49.19903 -119.91899 34554 ft 502 kts 77°
2026-05-07 19:20 49.20174 -119.88385 34711 ft 502 kts 77°
2026-05-07 19:20 49.20583 -119.83075 34902 ft 502 kts 77°
2026-05-07 19:20 49.20990 -119.77766 35005 ft 502 kts 77°
2026-05-07 19:21 49.21793 -119.67142 35011 ft 501 kts 77°
2026-05-07 19:21 49.22577 -119.56627 35008 ft 499 kts 77°
2026-05-07 19:22 49.23356 -119.46060 35010 ft 500 kts 77°
2026-05-07 19:22 49.24131 -119.35481 35007 ft 500 kts 77°
2026-05-07 19:23 49.24895 -119.24890 35008 ft 500 kts 77°
2026-05-07 19:23 49.25629 -119.14280 35039 ft 501 kts 77°
2026-05-07 19:24 49.26317 -119.03670 35021 ft 500 kts 77°
2026-05-07 19:24 49.26997 -118.93070 35006 ft 501 kts 77°
2026-05-07 19:25 49.27678 -118.82463 35010 ft 501 kts 77°
2026-05-07 19:25 49.28351 -118.71848 34996 ft 500 kts 77°
2026-05-07 19:26 49.29009 -118.61305 35026 ft 501 kts 77°
2026-05-07 19:26 49.29662 -118.50684 35013 ft 499 kts 77°
2026-05-07 19:27 49.30308 -118.40076 34999 ft 499 kts 77°
2026-05-07 19:27 49.30939 -118.29465 35009 ft 500 kts 77°
2026-05-07 19:28 49.31563 -118.18852 35027 ft 499 kts 77°
2026-05-07 19:28 49.32174 -118.08304 35002 ft 500 kts 77°
2026-05-07 19:29 49.32765 -117.97677 34984 ft 501 kts 77°
2026-05-07 19:29 49.33354 -117.86999 34986 ft 501 kts 77°
2026-05-07 19:30 49.33939 -117.76339 34973 ft 501 kts 77°
2026-05-07 19:30 49.34514 -117.65749 35012 ft 501 kts 77°
2026-05-07 19:31 49.35077 -117.55089 35003 ft 502 kts 77°
2026-05-07 19:31 49.35633 -117.44392 35000 ft 502 kts 77°
2026-05-07 19:32 49.36175 -117.33794 35006 ft 500 kts 77°
2026-05-07 19:32 49.36708 -117.23153 34999 ft 501 kts 78°
2026-05-07 19:33 49.37231 -117.12485 34985 ft 500 kts 78°
2026-05-07 19:33 49.37745 -117.01823 34991 ft 501 kts 78°
2026-05-07 19:34 49.38256 -116.91150 34970 ft 501 kts 78°
2026-05-07 19:34 49.38758 -116.80461 34986 ft 502 kts 78°
2026-05-07 19:35 49.39244 -116.69758 35018 ft 502 kts 78°
2026-05-07 19:35 49.39718 -116.59066 35003 ft 502 kts 78°
2026-05-07 19:36 49.40182 -116.48431 35001 ft 502 kts 78°
2026-05-07 19:36 49.40636 -116.37726 35018 ft 502 kts 78°
2026-05-07 19:37 49.41080 -116.27026 35022 ft 501 kts 78°
2026-05-07 19:37 49.41519 -116.16381 35014 ft 499 kts 78°
2026-05-07 19:38 49.41949 -116.05725 35000 ft 500 kts 78°
2026-05-07 19:38 49.42367 -115.95054 34992 ft 500 kts 78°
2026-05-07 19:39 49.42769 -115.84386 35029 ft 500 kts 78°
2026-05-07 19:39 49.43167 -115.73706 35010 ft 501 kts 78°
2026-05-07 19:40 49.43559 -115.63066 34997 ft 501 kts 78°
2026-05-07 19:40 49.43936 -115.52372 34995 ft 501 kts 79°
2026-05-07 19:41 49.44296 -115.41664 34984 ft 501 kts 79°
2026-05-07 19:41 49.44648 -115.30939 35002 ft 502 kts 79°
2026-05-07 19:42 49.44999 -115.20284 34992 ft 502 kts 79°
2026-05-07 19:42 49.45346 -115.09564 34988 ft 502 kts 79°
2026-05-07 19:43 49.45674 -114.98846 34987 ft 502 kts 79°
2026-05-07 19:43 49.45992 -114.88115 35046 ft 502 kts 79°
2026-05-07 19:44 49.46304 -114.77400 34983 ft 501 kts 79°
2026-05-07 19:44 49.46598 -114.66692 34968 ft 501 kts 79°
2026-05-07 19:45 49.46879 -114.56041 34961 ft 499 kts 79°
2026-05-07 19:45 49.47157 -114.45357 34953 ft 501 kts 79°
2026-05-07 19:46 49.47436 -114.34630 35003 ft 501 kts 80°
2026-05-07 19:46 49.47697 -114.24001 35007 ft 500 kts 80°
2026-05-07 19:47 49.47941 -114.13314 35000 ft 499 kts 80°
2026-05-07 19:47 49.48174 -114.02627 34994 ft 499 kts 80°
2026-05-07 19:48 49.48404 -113.91969 35050 ft 498 kts 81°
2026-05-07 19:48 49.48620 -113.81437 34984 ft 494 kts 82°
2026-05-07 19:49 49.48833 -113.70857 34973 ft 494 kts 82°
2026-05-07 19:49 49.49040 -113.60279 34966 ft 494 kts 82°
2026-05-07 19:50 49.49226 -113.49713 34957 ft 494 kts 82°
2026-05-07 19:50 49.49399 -113.39194 34969 ft 494 kts 83°
2026-05-07 19:51 49.49562 -113.28616 34968 ft 493 kts 83°
2026-05-07 19:51 49.49724 -113.18085 34967 ft 492 kts 83°
2026-05-07 19:52 49.49878 -113.07556 34969 ft 492 kts 83°
2026-05-07 19:52 49.50013 -112.97111 34972 ft 492 kts 83°
2026-05-07 19:53 49.50137 -112.86572 34985 ft 491 kts 85°
2026-05-07 19:53 49.50259 -112.76064 34979 ft 491 kts 85°
2026-05-07 19:54 49.50375 -112.65576 34974 ft 490 kts 85°
2026-05-07 19:54 49.50472 -112.55152 34969 ft 490 kts 85°
2026-05-07 19:55 49.50563 -112.44665 34959 ft 490 kts 85°
2026-05-07 19:55 49.50644 -112.34180 34953 ft 490 kts 85°
2026-05-07 19:56 49.50707 -112.23677 34954 ft 490 kts 85°
2026-05-07 19:56 49.50773 -112.13187 34950 ft 490 kts 85°
2026-05-07 19:57 49.50832 -112.02696 34946 ft 490 kts 85°
2026-05-07 19:57 49.50875 -111.92271 34963 ft 490 kts 86°
2026-05-07 19:58 49.50911 -111.81785 34954 ft 489 kts 86°
2026-05-07 19:58 49.50931 -111.71303 34949 ft 489 kts 86°
2026-05-07 19:59 49.50947 -111.60838 34929 ft 489 kts 86°
2026-05-07 19:59 49.50955 -111.50432 34954 ft 489 kts 86°
2026-05-07 20:00 49.50950 -111.39956 34936 ft 490 kts 86°
2026-05-07 20:00 49.50938 -111.29473 34938 ft 490 kts 86°
2026-05-07 20:01 49.50921 -111.18982 34932 ft 490 kts 87°
2026-05-07 20:01 49.50888 -111.08490 34928 ft 490 kts 87°
2026-05-07 20:02 49.50845 -110.97999 34946 ft 490 kts 87°
2026-05-07 20:02 49.50791 -110.87517 34942 ft 489 kts 87°
2026-05-07 20:03 49.50735 -110.77099 34934 ft 489 kts 87°
2026-05-07 20:03 49.50671 -110.66622 34929 ft 489 kts 87°
2026-05-07 20:04 49.50592 -110.56149 34949 ft 489 kts 87°
2026-05-07 20:04 49.50503 -110.45688 34933 ft 489 kts 87°
2026-05-07 20:05 49.50403 -110.35226 34916 ft 489 kts 87°
2026-05-07 20:05 49.50299 -110.24755 34912 ft 489 kts 88°
2026-05-07 20:06 49.50183 -110.14356 34912 ft 490 kts 88°
2026-05-07 20:06 49.50053 -110.03878 34926 ft 490 kts 87°
2026-05-07 20:07 49.50036 -109.95127 34887 ft 491 kts 84°
2026-05-07 20:07 49.50476 -109.84625 34886 ft 492 kts 81°
2026-05-07 20:08 49.51081 -109.74117 34893 ft 494 kts 81°
2026-05-07 20:08 49.51577 -109.63545 34900 ft 495 kts 82°
2026-05-07 20:09 49.51969 -109.53003 34929 ft 496 kts 83°
2026-05-07 20:10 49.52546 -109.37083 34926 ft 496 kts 82°
2026-05-07 20:10 49.52953 -109.26466 34925 ft 497 kts 82°
2026-05-07 20:11 49.53338 -109.15854 34954 ft 497 kts 82°
2026-05-07 20:11 49.53717 -109.05226 34943 ft 497 kts 82°
2026-05-07 20:12 49.54085 -108.94604 34934 ft 497 kts 82°
2026-05-07 20:12 49.54439 -108.84046 34931 ft 497 kts 82°
2026-05-07 20:13 49.54782 -108.73412 34918 ft 497 kts 82°
2026-05-07 20:13 49.55113 -108.62780 34938 ft 497 kts 82°
2026-05-07 20:14 49.55433 -108.52140 34921 ft 497 kts 82°
2026-05-07 20:14 49.55750 -108.41525 34914 ft 496 kts 82°
2026-05-07 20:15 49.56067 -108.30885 34911 ft 496 kts 82°
2026-05-07 20:15 49.56369 -108.20327 34938 ft 496 kts 82°
2026-05-07 20:16 49.56657 -108.09701 34929 ft 496 kts 83°
2026-05-07 20:16 49.56934 -107.99077 34921 ft 496 kts 83°
2026-05-07 20:17 49.57203 -107.88464 34917 ft 496 kts 83°
2026-05-07 20:17 49.57466 -107.77842 34913 ft 496 kts 83°
2026-05-07 20:18 49.57719 -107.67224 34917 ft 496 kts 83°
2026-05-07 20:18 49.57960 -107.56592 34914 ft 496 kts 83°
2026-05-07 20:19 49.58180 -107.46022 34913 ft 496 kts 83°
2026-05-07 20:19 49.58393 -107.35389 34914 ft 496 kts 83°
2026-05-07 20:20 49.58604 -107.24766 34942 ft 496 kts 83°
2026-05-07 20:20 49.58810 -107.14129 34932 ft 496 kts 84°
2026-05-07 20:21 49.58999 -107.03575 34933 ft 496 kts 84°
2026-05-07 20:21 49.59181 -106.92950 34929 ft 496 kts 84°
2026-05-07 20:22 49.59359 -106.82314 34953 ft 496 kts 84°
2026-05-07 20:22 49.59520 -106.71683 34952 ft 496 kts 84°
2026-05-07 20:23 49.59671 -106.61057 34948 ft 496 kts 84°
2026-05-07 20:23 49.59812 -106.50425 34939 ft 496 kts 85°
2026-05-07 20:24 49.59936 -106.39861 34941 ft 496 kts 85°
2026-05-07 20:24 49.60067 -106.29239 34958 ft 496 kts 85°
2026-05-07 20:25 49.60187 -106.18603 34953 ft 496 kts 85°
2026-05-07 20:25 49.60288 -106.07975 34949 ft 496 kts 85°
2026-05-07 20:26 49.60377 -105.97334 34948 ft 495 kts 86°
2026-05-07 20:26 49.60457 -105.86776 34965 ft 495 kts 86°
2026-05-07 20:27 49.60538 -105.76161 34965 ft 495 kts 86°
2026-05-07 20:27 49.60607 -105.65530 34960 ft 495 kts 86°
2026-05-07 20:28 49.60665 -105.54902 34965 ft 495 kts 86°
2026-05-07 20:28 49.60710 -105.44278 34972 ft 495 kts 87°
2026-05-07 20:29 49.60739 -105.33650 34966 ft 495 kts 87°
2026-05-07 20:29 49.60757 -105.23032 34963 ft 495 kts 87°
2026-05-07 20:30 49.60776 -105.12463 34961 ft 495 kts 87°
2026-05-07 20:30 49.60788 -105.01850 34958 ft 495 kts 87°
2026-05-07 20:31 49.60784 -104.91221 34972 ft 495 kts 88°
2026-05-07 20:31 49.60775 -104.80597 34966 ft 495 kts 88°
2026-05-07 20:32 49.60752 -104.69993 34962 ft 495 kts 88°
2026-05-07 20:32 49.60713 -104.59453 34958 ft 495 kts 88°
2026-05-07 20:33 49.60672 -104.48840 34975 ft 495 kts 88°
2026-05-07 20:33 49.60621 -104.38237 34965 ft 494 kts 88°
2026-05-07 20:34 49.60562 -104.27636 34957 ft 494 kts 88°
2026-05-07 20:34 49.60492 -104.17036 34957 ft 494 kts 88°
2026-05-07 20:35 49.60413 -104.06441 34959 ft 494 kts 88°
2026-05-07 20:35 49.60317 -103.95827 34963 ft 494 kts 88°
2026-05-07 20:36 49.60219 -103.85291 34963 ft 494 kts 88°
2026-05-07 20:36 49.60116 -103.74705 34959 ft 494 kts 88°
2026-05-07 20:37 49.59999 -103.64116 34954 ft 494 kts 88°
2026-05-07 20:37 49.59870 -103.53524 34970 ft 494 kts 88°
2026-05-07 20:38 49.59732 -103.42931 34966 ft 494 kts 88°
2026-05-07 20:38 49.59580 -103.32344 34957 ft 494 kts 89°
2026-05-07 20:39 49.59425 -103.21814 34957 ft 494 kts 89°
2026-05-07 20:39 49.59261 -103.11231 34956 ft 494 kts 89°
2026-05-07 20:40 49.59085 -103.00649 34955 ft 494 kts 89°
2026-05-07 20:40 49.58895 -102.90050 34954 ft 494 kts 89°
2026-05-07 20:41 49.58696 -102.79502 34956 ft 494 kts 89°
2026-05-07 20:41 49.58493 -102.68919 34955 ft 494 kts 89°
2026-05-07 20:42 49.58285 -102.58316 34961 ft 494 kts 89°
2026-05-07 20:42 49.58058 -102.47742 34955 ft 494 kts 89°
2026-05-07 20:43 49.57821 -102.37216 34945 ft 494 kts 89°
2026-05-07 20:43 49.57570 -102.26628 34941 ft 494 kts 89°
2026-05-07 20:44 49.57314 -102.16045 34959 ft 494 kts 89°
2026-05-07 20:44 49.57049 -102.05461 34949 ft 494 kts 89°
2026-05-07 20:45 49.56774 -101.94870 34940 ft 494 kts 89°
2026-05-07 20:45 49.56494 -101.84288 34935 ft 494 kts 89°
2026-05-07 20:46 49.56199 -101.73714 34934 ft 494 kts 89°
2026-05-07 20:46 49.55896 -101.63189 34948 ft 495 kts 89°
2026-05-07 20:47 49.55584 -101.52588 34937 ft 495 kts 89°
2026-05-07 20:47 49.55264 -101.41996 34939 ft 495 kts 89°
2026-05-07 20:48 49.54933 -101.31391 34937 ft 495 kts 89°
2026-05-07 20:48 49.54586 -101.20791 34961 ft 496 kts 89°
2026-05-07 20:49 49.54243 -101.10176 34946 ft 496 kts 89°
2026-05-07 20:49 49.53891 -100.99635 34940 ft 496 kts 89°
2026-05-07 20:50 49.53516 -100.89005 34940 ft 497 kts 89°
2026-05-07 20:50 49.53126 -100.78391 34963 ft 497 kts 89°
2026-05-07 20:51 49.52726 -100.67756 34952 ft 497 kts 89°
2026-05-07 20:51 49.52325 -100.57125 34942 ft 497 kts 89°
2026-05-07 20:52 49.51922 -100.46564 34938 ft 497 kts 89°
2026-05-07 20:52 49.51508 -100.35905 34936 ft 497 kts 89°
2026-05-07 20:53 49.51078 -100.25271 34939 ft 498 kts 89°
2026-05-07 20:53 49.50707 -100.16425 34935 ft 498 kts 89°
2026-05-07 20:54 49.50251 -100.05778 34930 ft 498 kts 89°
2026-05-07 20:54 49.49724 -99.95200 34928 ft 499 kts 91°
2026-05-07 20:55 49.48986 -99.84543 34959 ft 501 kts 92°
2026-05-07 20:55 49.48157 -99.73881 34946 ft 501 kts 92°
2026-05-07 20:56 49.47357 -99.63314 34940 ft 501 kts 92°
2026-05-07 20:56 49.46577 -99.52672 34935 ft 501 kts 92°
2026-05-07 20:57 49.45792 -99.42027 34935 ft 501 kts 92°
2026-05-07 20:57 49.44983 -99.31389 34945 ft 501 kts 92°
2026-05-07 20:58 49.44166 -99.20741 34937 ft 501 kts 92°
2026-05-07 20:58 49.43349 -99.10106 34928 ft 501 kts 92°
2026-05-07 20:59 49.42527 -98.99528 34922 ft 501 kts 92°
2026-05-07 20:59 49.41682 -98.88901 34949 ft 501 kts 92°
2026-05-07 21:00 49.40818 -98.78263 34927 ft 501 kts 92°
2026-05-07 21:00 49.39950 -98.67685 34921 ft 501 kts 92°
2026-05-07 21:01 49.39080 -98.57056 34919 ft 502 kts 92°
2026-05-07 21:01 49.38203 -98.46418 34918 ft 502 kts 92°
2026-05-07 21:02 49.37307 -98.35793 34915 ft 502 kts 92°
2026-05-07 21:02 49.36399 -98.25226 34915 ft 502 kts 92°
2026-05-07 21:03 49.35489 -98.14600 34914 ft 502 kts 92°
2026-05-07 21:03 49.34569 -98.03982 34914 ft 502 kts 92°
2026-05-07 21:04 49.33631 -97.93358 34929 ft 503 kts 92°
2026-05-07 21:04 49.32685 -97.82740 34923 ft 503 kts 92°
2026-05-07 21:05 49.31729 -97.72114 34923 ft 503 kts 92°
2026-05-07 21:05 49.30766 -97.61494 34919 ft 503 kts 92°
2026-05-07 21:06 49.29803 -97.50947 34926 ft 503 kts 92°
2026-05-07 21:06 49.28812 -97.40322 34931 ft 503 kts 92°
2026-05-07 21:07 49.27817 -97.29705 34906 ft 503 kts 92°
2026-05-07 21:07 49.26816 -97.19082 34911 ft 504 kts 92°
2026-05-07 21:08 49.25810 -97.08459 34962 ft 504 kts 92°
2026-05-07 21:08 49.24790 -96.97914 34943 ft 504 kts 93°
2026-05-07 21:09 49.23747 -96.87317 34940 ft 503 kts 93°
2026-05-07 21:09 49.22699 -96.76724 34935 ft 503 kts 93°
2026-05-07 21:10 49.21657 -96.66150 34929 ft 503 kts 93°
2026-05-07 21:10 49.20600 -96.55574 34932 ft 501 kts 93°
2026-05-07 21:11 49.19539 -96.45039 34935 ft 501 kts 94°
2026-05-07 21:11 49.17930 -96.29316 34921 ft 501 kts 94°
2026-05-07 21:12 49.16842 -96.18805 34952 ft 501 kts 94°
2026-05-07 21:12 49.15736 -96.08294 34932 ft 500 kts 94°
2026-05-07 21:13 49.14630 -95.97819 34911 ft 499 kts 94°
2026-05-07 21:13 49.13523 -95.87421 34908 ft 499 kts 94°
2026-05-07 21:14 49.12394 -95.76955 34897 ft 499 kts 94°
2026-05-07 21:14 49.11257 -95.66491 34934 ft 499 kts 95°
2026-05-07 21:15 49.10113 -95.56035 34918 ft 499 kts 95°
2026-05-07 21:15 49.08956 -95.45591 34911 ft 498 kts 95°
2026-05-07 21:16 49.07786 -95.35161 34904 ft 498 kts 95°
2026-05-07 21:16 49.06627 -95.24803 34929 ft 498 kts 95°
2026-05-07 21:17 49.05460 -95.14387 34917 ft 498 kts 95°
2026-05-07 21:17 49.04281 -95.03995 34916 ft 498 kts 95°
2026-05-07 21:18 49.03084 -94.93595 34913 ft 498 kts 95°
2026-05-07 21:18 49.01874 -94.83199 34957 ft 498 kts 96°
2026-05-07 21:19 49.00650 -94.72809 34963 ft 498 kts 96°
2026-05-07 21:19 48.99426 -94.62438 34943 ft 497 kts 96°
2026-05-07 21:20 48.98195 -94.52068 34919 ft 497 kts 96°
2026-05-07 21:20 48.96965 -94.41779 34924 ft 497 kts 96°
2026-05-07 21:21 48.95714 -94.31426 34955 ft 497 kts 96°
2026-05-07 21:21 48.94449 -94.21062 34953 ft 497 kts 96°
2026-05-07 21:22 48.93173 -94.10736 34956 ft 497 kts 97°
2026-05-07 21:22 48.91897 -94.00408 34944 ft 496 kts 97°
2026-05-07 21:23 48.90619 -93.90152 34943 ft 496 kts 97°
2026-05-07 21:23 48.89327 -93.79843 34938 ft 496 kts 97°
2026-05-07 21:24 48.88022 -93.69544 34935 ft 496 kts 97°
2026-05-07 21:24 48.86714 -93.59252 34923 ft 496 kts 97°
2026-05-07 21:25 48.85393 -93.48958 34940 ft 496 kts 97°
2026-05-07 21:25 48.84055 -93.38680 34929 ft 496 kts 97°
2026-05-07 21:26 48.82713 -93.28396 34924 ft 496 kts 97°
2026-05-07 21:26 48.81372 -93.18179 34925 ft 496 kts 97°
2026-05-07 21:27 48.80020 -93.07912 34926 ft 496 kts 97°
2026-05-07 21:27 48.78652 -92.97659 34952 ft 496 kts 97°
2026-05-07 21:28 48.77276 -92.87411 34935 ft 496 kts 97°
2026-05-07 21:28 48.75893 -92.77170 34929 ft 496 kts 98°
2026-05-07 21:29 48.74501 -92.66935 34923 ft 496 kts 98°
2026-05-07 21:29 48.73096 -92.56689 34940 ft 496 kts 98°
2026-05-07 21:30 48.71679 -92.46471 34928 ft 496 kts 98°
2026-05-07 21:30 48.70268 -92.36314 34916 ft 496 kts 98°
2026-05-07 21:31 48.68850 -92.26081 34913 ft 496 kts 98°
2026-05-07 21:31 48.67410 -92.15857 34934 ft 496 kts 98°
2026-05-07 21:32 48.65962 -92.05648 34918 ft 496 kts 98°
2026-05-07 21:32 48.64510 -91.95486 34911 ft 497 kts 98°
2026-05-07 21:33 48.63037 -91.85286 34897 ft 497 kts 99°
2026-05-07 21:33 48.61555 -91.75073 34896 ft 497 kts 99°
2026-05-07 21:34 48.60071 -91.64864 34910 ft 497 kts 99°
2026-05-07 21:34 48.58577 -91.54643 34899 ft 498 kts 99°
2026-05-07 21:35 48.57063 -91.44431 34898 ft 498 kts 99°
2026-05-07 21:35 48.55549 -91.34270 34901 ft 498 kts 99°
2026-05-07 21:36 48.54028 -91.24078 34921 ft 498 kts 100°
2026-05-07 21:36 48.52494 -91.13874 34916 ft 498 kts 100°
2026-05-07 21:37 48.50946 -91.03691 34908 ft 498 kts 100°
2026-05-07 21:37 48.49389 -90.93510 34908 ft 498 kts 100°
2026-05-07 21:38 48.47831 -90.83345 34918 ft 498 kts 101°
2026-05-07 21:38 48.46263 -90.73168 34910 ft 498 kts 101°
2026-05-07 21:39 48.44691 -90.63064 34899 ft 498 kts 101°
2026-05-07 21:39 48.43097 -90.52915 34884 ft 498 kts 101°
2026-05-07 21:40 48.41494 -90.42749 34903 ft 499 kts 101°
2026-05-07 21:40 48.40163 -90.34301 34897 ft 499 kts 101°
2026-05-07 21:41 48.38282 -90.22482 34888 ft 499 kts 101°
2026-05-07 21:41 48.36650 -90.12328 34891 ft 499 kts 102°
2026-05-07 21:42 48.35287 -90.03882 34888 ft 499 kts 102°
2026-05-07 21:42 48.33639 -89.93752 34902 ft 499 kts 102°
2026-05-07 21:43 48.31982 -89.83617 34896 ft 499 kts 102°
2026-05-07 21:43 48.30318 -89.73487 34887 ft 498 kts 102°
2026-05-07 21:44 48.28658 -89.63447 34882 ft 498 kts 102°
2026-05-07 21:44 48.26983 -89.53330 34878 ft 498 kts 102°
2026-05-07 21:45 48.25212 -89.43275 34868 ft 499 kts 109°
2026-05-07 21:45 48.22520 -89.33662 34869 ft 500 kts 112°
2026-05-07 21:46 48.19780 -89.24069 34857 ft 500 kts 112°
2026-05-07 21:46 48.17053 -89.14541 34876 ft 501 kts 112°
2026-05-07 21:47 48.14303 -89.04957 34879 ft 500 kts 112°
2026-05-07 21:47 48.11542 -88.95373 34882 ft 500 kts 112°
2026-05-07 21:48 48.08772 -88.85818 34882 ft 500 kts 112°
2026-05-07 21:48 48.05993 -88.76272 34885 ft 500 kts 112°
2026-05-07 21:49 48.03220 -88.66796 34900 ft 500 kts 113°
2026-05-07 21:49 48.00429 -88.57287 34895 ft 500 kts 113°
2026-05-07 21:50 47.97633 -88.47770 34877 ft 500 kts 113°
2026-05-07 21:50 47.94833 -88.38267 34881 ft 500 kts 113°
2026-05-07 21:51 47.92025 -88.28779 34899 ft 500 kts 114°
2026-05-07 21:51 47.89209 -88.19368 34895 ft 500 kts 114°
2026-05-07 21:52 47.86376 -88.09898 34898 ft 500 kts 114°
2026-05-07 21:52 47.83539 -88.00440 34897 ft 500 kts 114°
2026-05-07 21:53 47.80699 -87.91001 34897 ft 500 kts 114°
2026-05-07 21:53 47.77852 -87.81558 34901 ft 500 kts 114°
2026-05-07 21:54 47.75006 -87.72171 34897 ft 500 kts 114°
2026-05-07 21:54 47.72131 -87.62745 34900 ft 500 kts 114°
2026-05-07 21:55 47.69240 -87.53329 34902 ft 500 kts 115°
2026-05-07 21:55 47.66351 -87.43924 34914 ft 500 kts 115°
2026-05-07 21:56 47.63482 -87.34592 34914 ft 500 kts 115°
2026-05-07 21:56 47.60583 -87.25212 34914 ft 500 kts 115°
2026-05-07 21:57 47.57676 -87.15849 34913 ft 500 kts 115°
2026-05-07 21:57 47.54767 -87.06492 34902 ft 500 kts 115°
2026-05-07 21:58 47.51851 -86.97152 34906 ft 500 kts 115°
2026-05-07 21:58 47.48910 -86.87819 34911 ft 500 kts 115°
2026-05-07 21:59 47.45970 -86.78505 34915 ft 500 kts 115°
2026-05-07 21:59 47.43047 -86.69249 34915 ft 500 kts 115°
2026-05-07 22:00 47.40093 -86.59955 34924 ft 500 kts 116°
2026-05-07 22:00 47.37134 -86.50681 34924 ft 499 kts 116°
2026-05-07 22:01 47.34174 -86.41416 34923 ft 499 kts 116°
2026-05-07 22:01 47.31206 -86.32165 34912 ft 499 kts 116°
2026-05-07 22:02 47.28227 -86.22918 34921 ft 499 kts 116°
2026-05-07 22:02 47.25244 -86.13679 34916 ft 499 kts 116°
2026-05-07 22:03 47.22251 -86.04459 34919 ft 499 kts 116°
2026-05-07 22:03 47.19244 -85.95240 34929 ft 499 kts 116°
2026-05-07 22:04 47.16252 -85.86089 34929 ft 499 kts 116°
2026-05-07 22:04 47.13242 -85.76885 34927 ft 499 kts 116°
2026-05-07 22:05 47.10227 -85.67693 34927 ft 499 kts 116°
2026-05-07 22:05 47.07194 -85.58520 34919 ft 499 kts 117°
2026-05-07 22:06 47.04146 -85.49357 34918 ft 500 kts 117°
2026-05-07 22:06 47.01113 -85.40241 34920 ft 500 kts 117°
2026-05-07 22:07 46.98066 -85.31097 34921 ft 500 kts 117°
2026-05-07 22:07 46.95006 -85.21941 34925 ft 500 kts 117°
2026-05-07 22:08 46.91940 -85.12817 34926 ft 500 kts 117°
2026-05-07 22:08 46.88858 -85.03704 34931 ft 499 kts 117°
2026-05-07 22:09 46.85779 -84.94606 34930 ft 499 kts 117°
2026-05-07 22:09 46.82709 -84.85580 34927 ft 499 kts 117°
2026-05-07 22:10 46.79615 -84.76505 34931 ft 499 kts 117°
2026-05-07 22:10 46.76512 -84.67427 34939 ft 499 kts 117°
2026-05-07 22:11 46.73404 -84.58370 34939 ft 499 kts 117°
2026-05-07 22:11 46.70312 -84.49389 34939 ft 498 kts 117°
2026-05-07 22:12 46.67197 -84.40360 34941 ft 498 kts 117°
2026-05-07 22:12 46.64082 -84.31358 34933 ft 498 kts 118°
2026-05-07 22:13 46.60953 -84.22370 34932 ft 498 kts 118°
2026-05-07 22:13 46.57811 -84.13399 34931 ft 498 kts 118°
2026-05-07 22:14 46.54673 -84.04433 34930 ft 498 kts 118°
2026-05-07 22:14 46.51548 -83.95531 34928 ft 497 kts 118°
2026-05-07 22:15 46.48397 -83.86590 34930 ft 497 kts 118°
2026-05-07 22:15 46.45243 -83.77669 34931 ft 496 kts 118°
2026-05-07 22:16 46.42084 -83.68763 34925 ft 496 kts 118°
2026-05-07 22:16 46.38570 -83.60187 34914 ft 494 kts 127°
2026-05-07 22:17 46.34585 -83.52074 34914 ft 494 kts 127°
2026-05-07 22:17 46.30598 -83.43976 34916 ft 494 kts 127°
2026-05-07 22:18 46.24649 -83.31876 34920 ft 494 kts 127°
2026-05-07 22:19 46.20661 -83.23802 34917 ft 493 kts 127°
2026-05-07 22:19 46.16658 -83.15736 34911 ft 493 kts 127°
2026-05-07 22:20 46.12651 -83.07688 34903 ft 494 kts 128°
2026-05-07 22:20 46.08643 -82.99653 34914 ft 494 kts 128°
2026-05-07 22:21 46.04653 -82.91660 34917 ft 494 kts 127°
2026-05-07 22:21 46.00638 -82.83624 34926 ft 494 kts 128°
2026-05-07 22:22 45.96610 -82.75607 34924 ft 494 kts 128°
2026-05-07 22:22 45.92577 -82.67605 34902 ft 494 kts 128°
2026-05-07 22:23 45.88538 -82.59607 34906 ft 495 kts 128°
2026-05-07 22:23 45.84485 -82.51622 34908 ft 495 kts 128°
2026-05-07 22:24 45.80416 -82.43645 34935 ft 495 kts 128°
2026-05-07 22:24 45.76345 -82.35676 34933 ft 496 kts 128°
2026-05-07 22:25 45.72270 -82.27697 34938 ft 496 kts 128°
2026-05-07 22:25 45.68201 -82.19733 34918 ft 496 kts 129°
2026-05-07 22:26 45.64104 -82.11772 34924 ft 497 kts 129°
2026-05-07 22:26 45.59689 -82.04240 34926 ft 492 kts 140°
2026-05-07 22:27 45.54717 -81.97601 34928 ft 493 kts 140°
2026-05-07 22:27 45.49713 -81.90905 34935 ft 493 kts 140°
2026-05-07 22:28 45.45561 -81.85341 34925 ft 493 kts 140°
2026-05-07 22:28 45.40551 -81.78643 34925 ft 494 kts 140°
2026-05-07 22:29 45.35536 -81.71951 34934 ft 494 kts 140°
2026-05-07 22:29 45.30501 -81.65286 34941 ft 494 kts 140°
2026-05-07 22:30 45.25453 -81.58644 34913 ft 494 kts 141°
2026-05-07 22:30 45.20394 -81.52015 34924 ft 495 kts 141°
2026-05-07 22:31 45.15375 -81.45411 34927 ft 496 kts 141°
2026-05-07 22:31 45.10333 -81.38751 34932 ft 496 kts 141°
2026-05-07 22:32 45.05263 -81.32093 34916 ft 496 kts 141°
2026-05-07 22:32 45.00184 -81.25479 34918 ft 496 kts 141°
2026-05-07 22:33 44.95093 -81.18866 34929 ft 497 kts 141°
2026-05-07 22:33 44.92578 -81.15593 34611 ft 498 kts 141°
2026-05-07 22:33 44.90018 -81.12261 34330 ft 489 kts 141°
2026-05-07 22:33 44.87564 -81.09069 34111 ft 486 kts 141°
2026-05-07 22:34 44.85080 -81.05852 33876 ft 484 kts 141°
2026-05-07 22:34 44.82594 -81.02639 33591 ft 484 kts 141°
2026-05-07 22:34 44.80109 -80.99426 33325 ft 484 kts 141°
2026-05-07 22:34 44.77629 -80.96219 33050 ft 483 kts 141°
2026-05-07 22:35 44.75139 -80.93007 32028 ft 490 kts 141°
2026-05-07 22:35 44.72610 -80.89755 31033 ft 494 kts 141°
2026-05-07 22:35 44.70068 -80.86488 30170 ft 494 kts 141°
2026-05-07 22:35 44.67542 -80.83244 29098 ft 489 kts 140°
2026-05-07 22:36 44.65031 -80.80020 27796 ft 485 kts 140°
2026-05-07 22:36 44.62564 -80.76853 26989 ft 478 kts 140°
2026-05-07 22:36 44.60145 -80.73753 26195 ft 471 kts 140°
2026-05-07 22:36 44.57753 -80.70694 25420 ft 458 kts 140°
2026-05-07 22:37 44.55430 -80.67725 24687 ft 447 kts 140°
2026-05-07 22:37 44.53157 -80.64821 23958 ft 437 kts 140°
2026-05-07 22:37 44.50929 -80.61985 23187 ft 429 kts 140°
2026-05-07 22:37 44.48732 -80.59191 22345 ft 423 kts 140°
2026-05-07 22:38 44.46565 -80.56431 21516 ft 421 kts 140°
2026-05-07 22:38 44.44396 -80.53675 20803 ft 419 kts 140°
2026-05-07 22:38 44.42243 -80.50945 20151 ft 416 kts 140°
2026-05-07 22:38 44.40104 -80.48235 19514 ft 413 kts 140°
2026-05-07 22:39 44.37987 -80.45552 19082 ft 406 kts 140°
2026-05-07 22:39 44.35927 -80.42946 18700 ft 403 kts 140°
2026-05-07 22:39 44.33854 -80.40333 18337 ft 400 kts 140°
2026-05-07 22:39 44.31788 -80.37732 17930 ft 399 kts 141°
2026-05-07 22:40 44.29731 -80.35144 17513 ft 396 kts 141°
2026-05-07 22:40 44.27692 -80.32575 17099 ft 394 kts 141°
2026-05-07 22:40 44.25661 -80.30019 16692 ft 392 kts 141°
2026-05-07 22:40 44.23639 -80.27475 16289 ft 390 kts 141°
2026-05-07 22:41 44.21626 -80.24951 15886 ft 387 kts 141°
2026-05-07 22:41 44.19655 -80.22480 15482 ft 374 kts 141°
2026-05-07 22:41 44.17762 -80.20101 15088 ft 358 kts 141°
2026-05-07 22:41 44.15947 -80.17820 14704 ft 345 kts 141°
2026-05-07 22:42 44.14198 -80.15623 14334 ft 333 kts 142°
2026-05-07 22:42 44.12491 -80.13484 13967 ft 328 kts 142°
2026-05-07 22:42 44.10793 -80.11365 13572 ft 326 kts 142°
2026-05-07 22:42 44.09143 -80.09308 13295 ft 320 kts 142°
2026-05-07 22:43 44.07498 -80.07250 13010 ft 318 kts 142°
2026-05-07 22:43 44.05750 -80.05066 12749 ft 356 kts 142°
2026-05-07 22:43 44.03916 -80.02787 12465 ft 349 kts 142°
2026-05-07 22:43 44.02128 -80.00575 12183 ft 339 kts 144°
2026-05-07 22:44 44.00232 -79.98741 11926 ft 326 kts 152°
2026-05-07 22:44 43.98340 -79.97063 11657 ft 319 kts 152°
2026-05-07 22:44 43.96485 -79.95417 11381 ft 312 kts 152°
2026-05-07 22:44 43.94701 -79.93836 11117 ft 305 kts 152°
2026-05-07 22:45 43.92932 -79.92271 10875 ft 299 kts 152°
2026-05-07 22:45 43.91183 -79.90730 10610 ft 296 kts 153°
2026-05-07 22:45 43.89450 -79.89208 10347 ft 294 kts 153°
2026-05-07 22:45 43.87775 -79.87726 10091 ft 275 kts 153°
2026-05-07 22:46 43.86206 -79.86331 9841 ft 264 kts 153°
2026-05-07 22:46 43.84675 -79.84947 9563 ft 263 kts 148°
2026-05-07 22:46 43.83315 -79.83268 9017 ft 260 kts 141°
2026-05-07 22:46 43.82010 -79.81548 8632 ft 258 kts 141°
2026-05-07 22:47 43.80713 -79.79837 8291 ft 257 kts 140°
2026-05-07 22:47 43.79421 -79.78132 7957 ft 257 kts 140°
2026-05-07 22:47 43.78138 -79.76438 7705 ft 249 kts 140°
2026-05-07 22:47 43.76989 -79.74727 7348 ft 247 kts 125°
2026-05-07 22:48 43.76429 -79.72498 6975 ft 247 kts 95°
2026-05-07 22:48 43.76665 -79.70174 6611 ft 244 kts 66°
2026-05-07 22:48 43.77606 -79.68270 6243 ft 238 kts 43°
2026-05-07 22:48 43.78748 -79.66622 5880 ft 236 kts 43°
2026-05-07 22:49 43.79872 -79.64993 5821 ft 234 kts 43°
2026-05-07 22:49 43.81001 -79.63356 5760 ft 234 kts 43°
2026-05-07 22:49 43.82123 -79.61724 5673 ft 234 kts 43°
2026-05-07 22:49 43.83244 -79.60089 5583 ft 234 kts 43°
2026-05-07 22:50 43.84346 -79.58482 5487 ft 233 kts 43°
2026-05-07 22:50 43.85462 -79.56855 5391 ft 232 kts 43°
2026-05-07 22:50 43.86577 -79.55229 5236 ft 232 kts 43°
2026-05-07 22:50 43.87496 -79.53402 4964 ft 234 kts 69°
2026-05-07 22:51 43.87611 -79.51168 4706 ft 236 kts 102°
2026-05-07 22:51 43.86860 -79.49191 4446 ft 234 kts 133°
2026-05-07 22:51 43.85704 -79.47602 4191 ft 234 kts 139°
2026-05-07 22:51 43.84510 -79.46106 3925 ft 228 kts 140°
2026-05-07 22:52 43.83339 -79.44670 3655 ft 220 kts 142°
2026-05-07 22:52 43.82013 -79.43798 3384 ft 209 kts 177°
2026-05-07 22:52 43.80582 -79.43814 3273 ft 205 kts 188°
2026-05-07 22:52 43.79208 -79.44106 3169 ft 201 kts 198°
2026-05-07 22:53 43.77928 -79.44790 3069 ft 193 kts 215°
2026-05-07 22:53 43.76947 -79.45981 3014 ft 184 kts 231°
2026-05-07 22:53 43.76068 -79.47267 2982 ft 184 kts 231°
2026-05-07 22:53 43.75194 -79.48546 2818 ft 182 kts 231°
2026-05-07 22:54 43.74338 -79.49795 2579 ft 176 kts 231°
2026-05-07 22:54 43.73511 -79.51001 2358 ft 167 kts 230°
2026-05-07 22:54 43.72729 -79.52141 2128 ft 162 kts 230°
2026-05-07 22:54 43.71965 -79.53257 1912 ft 158 kts 231°
2026-05-07 22:55 43.71207 -79.54363 1691 ft 156 kts 230°
2026-05-07 22:55 43.70489 -79.55407 1471 ft 146 kts 232°
2026-05-07 22:55 43.69792 -79.56429 1235 ft 148 kts 231°
2026-05-07 22:55 43.69071 -79.57466 1046 ft 152 kts 231°
2026-05-07 22:56 43.68334 -79.58521 837 ft 152 kts 230°
2026-05-07 22:56 43.67614 -79.59587 625 ft 153 kts 231°
2026-05-07 22:56 43.66915 -79.60622 563 ft 128 kts 225°
2026-05-07 22:56 43.66533 -79.61167 560 ft 39 kts 226°
2026-05-07 22:57 43.66435 -79.61369 558 ft 15 kts 249°
2026-05-07 22:57 43.66418 -79.61438 560 ft 2 kts 252°
2026-05-07 22:57 43.66405 -79.61491 557 ft 10 kts 252°
2026-05-07 22:57 43.66383 -79.61587 564 ft 9 kts 252°
2026-05-07 22:58 43.66379 -79.61692 563 ft 13 kts 297°
2026-05-07 22:58 43.66436 -79.61770 569 ft 10 kts 316°
2026-05-07 22:58 43.66489 -79.61839 561 ft 11 kts 316°
2026-05-07 22:58 43.66553 -79.61920 564 ft 13 kts 317°
2026-05-07 22:59 43.66616 -79.62000 566 ft 10 kts 319°
2026-05-07 22:59 43.66668 -79.62007 568 ft 8 kts 30°
2026-05-07 22:59 43.66718 -79.61945 568 ft 13 kts 43°
2026-05-07 22:59 43.66793 -79.61848 573 ft 15 kts 41°
2026-05-07 23:00 43.66870 -79.61752 573 ft 15 kts 43°
2026-05-07 23:00 43.66948 -79.61656 569 ft 15 kts 41°
2026-05-07 23:00 43.67024 -79.61559 573 ft 15 kts 43°
2026-05-07 23:00 43.67096 -79.61466 575 ft 14 kts 42°
2026-05-07 23:01 43.67172 -79.61370 575 ft 14 kts 45°
2026-05-07 23:01 43.67234 -79.61262 566 ft 13 kts 54°
2026-05-07 23:01 43.67295 -79.61148 560 ft 16 kts 53°
2026-05-07 23:01 43.67373 -79.61093 566 ft 13 kts 355°
2026-05-07 23:02 43.67459 -79.61121 563 ft 14 kts 325°
2026-05-07 23:02 43.67485 -79.61252 565 ft 15 kts 278°
2026-05-07 23:02 43.67525 -79.61393 567 ft 17 kts 305°
2026-05-07 23:02 43.67602 -79.61508 562 ft 16 kts 315°
2026-05-07 23:03 43.67679 -79.61616 565 ft 14 kts 313°
2026-05-07 23:03 43.67738 -79.61678 567 ft 8 kts 349°
2026-05-07 23:03 43.67784 -79.61679 569 ft 6 kts
2026-05-07 23:03 43.67826 -79.61671 566 ft 4 kts
2026-05-07 23:04 43.67846 -79.61669 566 ft 2 kts
2026-05-07 23:04 43.67848 -79.61669 566 ft 0 kts